| time (UTC) | temp F | wind direction | speed MPH | gust MPH | rain 1hr in | rain 24hr in | rain mn in | humidity % | barometer mb |
| 20260507010059 | 66 | 338 | 5.0 | 13.0 | 0.00 | 0.00 | 0.00 | 64 | 1015.7 |
| 20260507004547 | 67 | 304 | 4.0 | 12.0 | 0.00 | 0.00 | 0.00 | 64 | 1015.6 |
| 20260507003044 | 67 | 331 | 6.0 | 9.0 | 0.00 | 0.00 | 0.00 | 63 | 1015.5 |
| 20260507001548 | 67 | 269 | 4.0 | 13.0 | 0.00 | 0.00 | 0.00 | 64 | 1015.4 |
| 20260507000043 | 67 | 291 | 4.0 | 14.0 | 0.00 | 0.00 | 0.00 | 64 | 1015.4 |
| 20260506234540 | 67 | 288 | 3.0 | 11.0 | 0.00 | 0.00 | 0.00 | 64 | 1015.4 |
| 20260506233020 | 67 | 217 | 5.0 | 15.0 | 0.00 | 0.00 | 0.00 | 66 | 1015.3 |
| 20260506231518 | 67 | 279 | 8.0 | 14.0 | 0.00 | 0.00 | 0.00 | 64 | 1015.3 |
| 20260506230105 | 68 | 5 | 5.0 | 13.0 | 0.00 | 0.00 | 0.00 | 63 | 1015.4 |
| 20260506224559 | 67 | 333 | 8.0 | 16.0 | 0.00 | 0.00 | 0.00 | 65 | 1015.4 |
| 20260506223038 | 68 | 278 | 5.0 | 14.0 | 0.00 | 0.00 | 0.00 | 66 | 1015.6 |
| 20260506221536 | 68 | 303 | 4.0 | 11.0 | 0.00 | 0.00 | 0.00 | 65 | 1015.6 |
| 20260506220024 | 67 | 300 | 6.0 | 13.0 | 0.00 | 0.00 | 0.00 | 66 | 1015.8 |
| 20260506214514 | 67 | 260 | 7.0 | 13.0 | 0.00 | 0.00 | 0.00 | 66 | 1015.9 |
| 20260506213056 | 67 | 270 | 7.0 | 16.0 | 0.00 | 0.00 | 0.00 | 66 | 1016.0 |
| 20260506211554 | 67 | 250 | 8.0 | 13.0 | 0.00 | 0.00 | 0.00 | 66 | 1016.1 |
| 20260506210033 | 67 | 254 | 7.0 | 15.0 | 0.00 | 0.00 | 0.00 | 66 | 1016.2 |
| 20260506204533 | 67 | 299 | 6.0 | 14.0 | 0.00 | 0.00 | 0.00 | 66 | 1016.2 |
| 20260506203012 | 67 | 281 | 9.0 | 15.0 | 0.00 | 0.00 | 0.00 | 66 | 1016.4 |
| 20260506201510 | 68 | 277 | 7.0 | 13.0 | 0.00 | 0.00 | 0.00 | 64 | 1016.4 |
| 20260506200051 | 68 | 292 | 7.0 | 14.0 | 0.00 | 0.00 | 0.00 | 63 | 1016.5 |
| 20260506194552 | 69 | 284 | 4.0 | 10.0 | 0.00 | 0.00 | 0.00 | 62 | 1016.6 |
| 20260506193030 | 69 | 47 | 3.0 | 11.0 | 0.00 | 0.00 | 0.00 | 62 | 1016.7 |
| 20260506191528 | 69 | 355 | 4.0 | 10.0 | 0.00 | 0.00 | 0.00 | 59 | 1016.9 |
| 20260506190007 | 69 | 355 | 1.0 | 10.0 | 0.00 | 0.00 | 0.00 | 57 | 1017.0 |
| 20260506184505 | 68 | 344 | 1.0 | 8.0 | 0.00 | 0.00 | 0.00 | 59 | 1017.1 |
| 20260506183046 | 68 | 313 | 4.0 | 11.0 | 0.00 | 0.00 | 0.00 | 59 | 1017.3 |
| 20260506181541 | 66 | 256 | 2.0 | 16.0 | 0.00 | 0.00 | 0.00 | 60 | 1017.4 |
| 20260506180021 | 66 | 238 | 3.0 | 9.0 | 0.00 | 0.00 | 0.00 | 61 | 1017.6 |
| 20260506174519 | 65 | 340 | 4.0 | 11.0 | 0.00 | 0.00 | 0.00 | 62 | 1017.7 |
| 20260506173120 | 64 | 17 | 2.0 | 11.0 | 0.00 | 0.00 | 0.00 | 65 | 1017.8 |
| 20260506171558 | 63 | 326 | 2.0 | 10.0 | 0.00 | 0.00 | 0.00 | 69 | 1018.1 |
| 20260506170034 | 63 | 24 | 1.0 | 6.0 | 0.00 | 0.00 | 0.00 | 68 | 1018.1 |
| 20260506164533 | 62 | 275 | 2.0 | 5.0 | 0.00 | 0.00 | 0.00 | 69 | 1017.9 |
| 20260506163019 | 62 | 19 | 4.0 | 7.0 | 0.00 | 0.00 | 0.00 | 70 | 1018.1 |
| 20260506161511 | 61 | 36 | 3.0 | 6.0 | 0.00 | 0.00 | 0.00 | 72 | 1018.0 |
| 20260506160053 | 61 | 10 | 1.0 | 5.0 | 0.00 | 0.00 | 0.00 | 73 | 1018.1 |
| 20260506154600 | 60 | 9 | 1.0 | 5.0 | 0.00 | 0.00 | 0.00 | 73 | 1018.1 |
| 20260506153039 | 60 | 349 | 2.0 | 5.0 | 0.00 | 0.00 | 0.00 | 73 | 1018.2 |
| 20260506151533 | 59 | 98 | 3.0 | 5.0 | 0.00 | 0.00 | 0.00 | 75 | 1018.2 |
| 20260506150016 | 58 | 59 | 2.0 | 4.0 | 0.00 | 0.00 | 0.00 | 77 | 1018.2 |
| 20260506144513 | 57 | 43 | 3.0 | 6.0 | 0.00 | 0.00 | 0.00 | 78 | 1018.1 |
| 20260506143056 | 56 | 47 | 1.0 | 5.0 | 0.00 | 0.06 | 0.00 | 81 | 1018.0 |
| 20260506141557 | 55 | 80 | 3.0 | 8.0 | 0.00 | 0.06 | 0.00 | 82 | 1018.0 |
| 20260506140044 | 54 | 50 | 1.0 | 3.0 | 0.00 | 0.06 | 0.00 | 83 | 1018.0 |
| 20260506134536 | 54 | 38 | 0.0 | 4.0 | 0.00 | 0.06 | 0.00 | 84 | 1017.9 |
| 20260506133015 | 53 | 42 | 1.0 | 3.0 | 0.00 | 0.06 | 0.00 | 85 | 1017.8 |
| 20260506131518 | 53 | 82 | 0.0 | 1.0 | 0.00 | 0.06 | 0.00 | 86 | 1017.5 |
| 20260506130059 | 53 | 55 | 0.0 | 3.0 | 0.00 | 0.06 | 0.00 | 86 | 1017.4 |
| 20260506124559 | 53 | 48 | 0.0 | 2.0 | 0.00 | 0.06 | 0.00 | 86 | 1017.3 |
| 20260506123038 | 53 | 42 | 0.0 | 3.0 | 0.00 | 0.07 | 0.00 | 86 | 1017.3 |
| 20260506121538 | 53 | 53 | 0.0 | 3.0 | 0.00 | 0.07 | 0.00 | 86 | 1017.2 |
| 20260506120025 | 53 | 50 | 0.0 | 0.0 | 0.00 | 0.07 | 0.00 | 85 | 1017.1 |
| 20260506114518 | 53 | 38 | 0.0 | 0.0 | 0.00 | 0.07 | 0.00 | 85 | 1017.1 |
| 20260506113005 | 53 | 57 | 0.0 | 0.0 | 0.00 | 0.07 | 0.00 | 84 | 1017.2 |
| 20260506111504 | 54 | 56 | 0.0 | 2.0 | 0.00 | 0.07 | 0.00 | 84 | 1017.1 |
| 20260506110005 | 54 | 42 | 1.0 | 3.0 | 0.00 | 0.07 | 0.00 | 84 | 1017.1 |
| 20260506104505 | 54 | 32 | 0.0 | 0.0 | 0.00 | 0.07 | 0.00 | 84 | 1017.1 |
| 20260506103003 | 54 | 46 | 0.0 | 3.0 | 0.00 | 0.08 | 0.00 | 84 | 1017.0 |
| 20260506101502 | 53 | 51 | 0.0 | 3.0 | 0.00 | 0.08 | 0.00 | 85 | 1017.0 |
| 20260506100002 | 53 | 46 | 1.0 | 3.0 | 0.00 | 0.08 | 0.00 | 85 | 1016.8 |
| 20260506094501 | 53 | 40 | 0.0 | 0.0 | 0.00 | 0.08 | 0.00 | 85 | 1016.9 |
| 20260506093008 | 53 | 60 | 0.0 | 0.0 | 0.00 | 0.09 | 0.00 | 84 | 1016.9 |
| 20260506091546 | 53 | 62 | 1.0 | 3.0 | 0.00 | 0.09 | 0.00 | 84 | 1016.9 |
| 20260506090046 | 54 | 59 | 0.0 | 0.0 | 0.00 | 0.09 | 0.00 | 84 | 1017.0 |
| 20260506084524 | 54 | 105 | 0.0 | 0.0 | 0.00 | 0.09 | 0.00 | 84 | 1017.2 |
| 20260506083023 | 54 | 105 | 0.0 | 0.0 | 0.00 | 0.18 | 0.00 | 84 | 1017.5 |
| 20260506081508 | 54 | 110 | 0.0 | 0.0 | 0.00 | 0.18 | 0.00 | 83 | 1017.5 |
| 20260506073045 | 55 | 38 | 0.0 | 2.0 | 0.00 | 0.21 | 0.00 | 82 | 1017.7 |
| 20260506071526 | 55 | 46 | 0.0 | 2.0 | 0.00 | 0.21 | 0.00 | 82 | 1017.7 |
| 20260506061558 | 56 | 69 | 0.0 | 0.0 | 0.00 | 0.21 | 0.00 | 78 | 1017.3 |
| 20260506044547 | 58 | 302 | 0.0 | 3.0 | 0.00 | 0.21 | 0.00 | 74 | 1017.0 |
| 20260506043051 | 58 | 320 | 1.0 | 3.0 | 0.00 | 0.21 | 0.00 | 74 | 1016.9 |
| 20260506041528 | 58 | 360 | 1.0 | 5.0 | 0.00 | 0.21 | 0.00 | 73 | 1016.8 |
| 20260506040025 | 58 | 325 | 2.0 | 5.0 | 0.00 | 0.21 | 0.00 | 73 | 1016.6 |
| 20260506034513 | 58 | 289 | 3.0 | 7.0 | 0.00 | 0.21 | 0.00 | 73 | 1016.4 |
| 20260506033010 | 59 | 286 | 3.0 | 6.0 | 0.00 | 0.21 | 0.00 | 73 | 1016.1 |
| 20260506031509 | 59 | 329 | 5.0 | 9.0 | 0.00 | 0.21 | 0.00 | 72 | 1016.0 |
| 20260506030006 | 59 | 302 | 2.0 | 7.0 | 0.00 | 0.21 | 0.00 | 72 | 1015.7 |
| 20260506024506 | 59 | 277 | 2.0 | 8.0 | 0.00 | 0.21 | 0.00 | 71 | 1015.5 |
| 20260506023005 | 60 | 285 | 3.0 | 10.0 | 0.00 | 0.21 | 0.00 | 69 | 1015.3 |
| 20260506021504 | 60 | 323 | 1.0 | 11.0 | 0.00 | 0.21 | 0.00 | 68 | 1015.1 |
| 20260506020004 | 60 | 238 | 3.0 | 12.0 | 0.00 | 0.21 | 0.00 | 67 | 1014.9 |
| 20260506014547 | 61 | 240 | 6.0 | 10.0 | 0.00 | 0.21 | 0.00 | 64 | 1014.9 |
| 20260506013045 | 61 | 286 | 3.0 | 9.0 | 0.00 | 0.21 | 0.00 | 64 | 1014.8 |
| 20260506011528 | 62 | 294 | 5.0 | 11.0 | 0.00 | 0.21 | 0.00 | 62 | 1014.8 |